Time,TemperatureF,DewpointF,PressureIn,WindDirection,WindDirectionDegrees,WindSpeedMPH,WindSpeedGustMPH,Humidity,HourlyPrecipIn,Conditions,Clouds,dailyrainin,SoftwareType,DateUTC
2013-05-03 00:04:00,60.8,39.9,30.16,South,180,0.0,-999.0,46,-99.99,,,0.00,Acu-Link.com,2013-05-03 04:04:00,
2013-05-03 00:19:00,60.8,41.0,30.17,WNW,292,2.0,-999.0,48,-99.99,,,0.00,Acu-Link.com,2013-05-03 04:19:00,
2013-05-03 00:34:00,60.8,40.4,30.17,East,90,1.6,-999.0,47,-99.99,,,0.00,Acu-Link.com,2013-05-03 04:34:00,
2013-05-03 00:49:00,60.8,39.3,30.17,SE,135,1.1,-999.0,45,-99.99,,,0.00,Acu-Link.com,2013-05-03 04:49:00,
2013-05-03 01:04:00,60.8,39.9,30.16,ENE,67,1.1,-999.0,46,-99.99,,,0.00,Acu-Link.com,2013-05-03 05:04:00,
2013-05-03 01:19:00,60.8,42.0,30.16,North,0,0.0,-999.0,50,-99.99,,,0.00,Acu-Link.com,2013-05-03 05:19:00,
2013-05-03 01:34:00,60.8,40.4,30.16,WNW,292,2.0,-999.0,47,-99.99,,,0.00,Acu-Link.com,2013-05-03 05:34:00,
2013-05-03 01:50:00,59.0,39.9,30.16,ESE,112,0.0,-999.0,49,-99.99,,,0.00,Acu-Link.com,2013-05-03 05:50:00,
2013-05-03 02:05:00,59.0,38.8,30.16,NW,315,3.1,-999.0,47,-99.99,,,0.00,Acu-Link.com,2013-05-03 06:05:00,
2013-05-03 02:20:00,59.0,37.7,30.16,NNE,22,1.6,-999.0,45,-99.99,,,0.00,Acu-Link.com,2013-05-03 06:20:00,
2013-05-03 02:35:00,59.0,39.3,30.16,ESE,112,2.0,-999.0,48,-99.99,,,0.00,Acu-Link.com,2013-05-03 06:35:00,
2013-05-03 02:50:00,59.0,40.4,30.16,NNE,22,3.6,-999.0,50,-99.99,,,0.00,Acu-Link.com,2013-05-03 06:50:00,
2013-05-03 03:05:00,57.2,40.2,30.16,SSE,157,0.0,-999.0,53,-99.99,,,0.00,Acu-Link.com,2013-05-03 07:05:00,
2013-05-03 03:20:00,57.2,40.7,30.16,SSW,202,3.1,-999.0,54,-99.99,,,0.00,Acu-Link.com,2013-05-03 07:20:00,
2013-05-03 03:35:00,55.4,40.4,30.16,ESE,112,0.0,-999.0,57,-99.99,,,0.00,Acu-Link.com,2013-05-03 07:35:00,
2013-05-03 03:50:00,55.4,40.4,30.16,SSE,157,2.7,-999.0,57,-99.99,,,0.00,Acu-Link.com,2013-05-03 07:50:00,
2013-05-03 04:05:00,55.4,41.3,30.16,ENE,67,2.0,-999.0,59,-99.99,,,0.00,Acu-Link.com,2013-05-03 08:05:00,
2013-05-03 04:20:00,55.4,40.0,30.16,SE,135,2.0,-999.0,56,-99.99,,,0.00,Acu-Link.com,2013-05-03 08:20:00,
2013-05-03 04:36:00,55.4,41.7,30.16,ESE,112,3.6,-999.0,60,-99.99,,,0.00,Acu-Link.com,2013-05-03 08:36:00,
2013-05-03 04:51:00,55.4,40.9,30.16,ESE,112,1.1,-999.0,58,-99.99,,,0.00,Acu-Link.com,2013-05-03 08:51:00,
2013-05-03 05:06:00,55.4,40.9,30.16,ESE,112,2.0,-999.0,58,-99.99,,,0.00,Acu-Link.com,2013-05-03 09:06:00,
2013-05-03 05:21:00,55.4,40.9,30.16,ESE,112,1.6,-999.0,58,-99.99,,,0.00,Acu-Link.com,2013-05-03 09:21:00,
2013-05-03 05:36:00,55.4,41.7,30.16,SE,135,2.0,-999.0,60,-99.99,,,0.00,Acu-Link.com,2013-05-03 09:36:00,
2013-05-03 05:51:00,55.4,42.6,30.16,SE,135,1.6,-999.0,62,-99.99,,,0.00,Acu-Link.com,2013-05-03 09:51:00,
2013-05-03 06:06:00,53.6,41.3,30.17,ESE,112,1.6,-999.0,63,-99.99,,,0.00,Acu-Link.com,2013-05-03 10:06:00,
2013-05-03 06:21:00,53.6,42.1,30.18,SW,225,2.0,-999.0,65,-99.99,,,0.00,Acu-Link.com,2013-05-03 10:21:00,
2013-05-03 06:36:00,53.6,42.9,30.18,ENE,67,1.1,-999.0,67,-99.99,,,0.00,Acu-Link.com,2013-05-03 10:36:00,
2013-05-03 06:51:00,53.6,41.7,30.18,ESE,112,2.7,-999.0,64,-99.99,,,0.00,Acu-Link.com,2013-05-03 10:51:00,
2013-05-03 07:06:00,53.6,42.1,30.18,SSW,202,1.6,-999.0,65,-99.99,,,0.00,Acu-Link.com,2013-05-03 11:06:00,
2013-05-03 07:21:00,53.6,42.1,30.18,SSE,157,2.0,-999.0,65,-99.99,,,0.00,Acu-Link.com,2013-05-03 11:21:00,
2013-05-03 07:36:00,55.4,42.2,30.18,ESE,112,2.7,-999.0,61,-99.99,,,0.00,Acu-Link.com,2013-05-03 11:36:00,
2013-05-03 07:51:00,55.4,42.2,30.18,SE,135,2.7,-999.0,61,-99.99,,,0.00,Acu-Link.com,2013-05-03 11:51:00,
2013-05-03 08:06:00,57.2,43.4,30.19,SE,135,1.6,-999.0,60,-99.99,,,0.00,Acu-Link.com,2013-05-03 12:06:00,
2013-05-03 08:21:00,59.0,44.7,30.19,NW,315,1.6,-999.0,59,-99.99,,,0.00,Acu-Link.com,2013-05-03 12:21:00,
2013-05-03 08:36:00,59.0,43.3,30.20,SE,135,2.0,-999.0,56,-99.99,,,0.00,Acu-Link.com,2013-05-03 12:36:00,
2013-05-03 08:51:00,60.8,44.0,30.19,SSW,202,3.6,-999.0,54,-99.99,,,0.00,Acu-Link.com,2013-05-03 12:51:00,
2013-05-03 09:06:00,62.6,46.2,30.19,SSE,157,1.1,-999.0,55,-99.99,,,0.00,Acu-Link.com,2013-05-03 13:06:00,
2013-05-03 09:21:00,62.6,44.2,30.19,NNE,22,1.6,-999.0,51,-99.99,,,0.00,Acu-Link.com,2013-05-03 13:21:00,
2013-05-03 09:36:00,68.0,47.6,30.19,South,180,2.7,-999.0,48,-99.99,,,0.00,Acu-Link.com,2013-05-03 13:36:00,
2013-05-03 09:51:00,66.2,45.4,30.19,NNE,22,3.1,-999.0,47,-99.99,,,0.00,Acu-Link.com,2013-05-03 13:51:00,
2013-05-03 10:07:00,64.4,44.8,30.19,SE,135,2.0,-999.0,49,-99.99,,,0.00,Acu-Link.com,2013-05-03 14:07:00,
2013-05-03 10:22:00,66.2,44.8,30.19,ESE,112,2.7,-999.0,46,-99.99,,,0.00,Acu-Link.com,2013-05-03 14:22:00,
2013-05-03 10:37:00,68.0,48.7,30.19,SW,225,2.0,-999.0,50,-99.99,,,0.00,Acu-Link.com,2013-05-03 14:37:00,
2013-05-03 10:52:00,69.8,46.9,30.18,WNW,292,3.6,-999.0,44,-99.99,,,0.00,Acu-Link.com,2013-05-03 14:52:00,
2013-05-03 11:07:00,69.8,47.5,30.18,SW,225,4.0,-999.0,45,-99.99,,,0.00,Acu-Link.com,2013-05-03 15:07:00,
2013-05-03 11:22:00,71.6,44.6,30.17,SSE,157,3.6,-999.0,38,-99.99,,,0.00,Acu-Link.com,2013-05-03 15:22:00,
2013-05-03 11:37:00,71.6,39.4,30.18,SSE,157,3.1,-999.0,31,-99.99,,,0.00,Acu-Link.com,2013-05-03 15:37:00,
2013-05-03 11:52:00,73.4,44.8,30.17,SW,225,5.1,-999.0,36,-99.99,,,0.00,Acu-Link.com,2013-05-03 15:52:00,
2013-05-03 12:07:00,75.2,41.6,30.16,NNE,22,3.1,-999.0,30,-99.99,,,0.00,Acu-Link.com,2013-05-03 16:07:00,
2013-05-03 12:22:00,75.2,39.8,30.16,ESE,112,5.1,-999.0,28,-99.99,,,0.00,Acu-Link.com,2013-05-03 16:22:00,
2013-05-03 12:37:00,75.2,41.6,30.16,SSE,157,2.0,-999.0,30,-99.99,,,0.00,Acu-Link.com,2013-05-03 16:37:00,
2013-05-03 12:52:00,75.2,37.9,30.15,SSW,202,2.0,-999.0,26,-99.99,,,0.00,Acu-Link.com,2013-05-03 16:52:00,
2013-05-03 13:07:00,77.0,41.4,30.15,West,270,4.0,-999.0,28,-99.99,,,0.00,Acu-Link.com,2013-05-03 17:07:00,
2013-05-03 13:22:00,77.0,38.5,30.14,East,90,4.0,-999.0,25,-99.99,,,0.00,Acu-Link.com,2013-05-03 17:22:00,
2013-05-03 13:37:00,78.8,42.0,30.14,SW,225,4.0,-999.0,27,-99.99,,,0.00,Acu-Link.com,2013-05-03 17:37:00,
2013-05-03 13:52:00,77.0,37.4,30.13,ESE,112,4.7,-999.0,24,-99.99,,,0.00,Acu-Link.com,2013-05-03 17:52:00,
2013-05-03 14:07:00,77.0,43.2,30.13,South,180,4.7,-999.0,30,-99.99,,,0.00,Acu-Link.com,2013-05-03 18:07:00,
2013-05-03 14:22:00,77.0,40.4,30.13,SSW,202,3.6,-999.0,27,-99.99,,,0.00,Acu-Link.com,2013-05-03 18:22:00,
2013-05-03 14:37:00,78.8,38.9,30.12,WNW,292,3.6,-999.0,24,-99.99,,,0.00,Acu-Link.com,2013-05-03 18:37:00,
2013-05-03 14:52:00,77.0,40.4,30.12,SSE,157,2.7,-999.0,27,-99.99,,,0.00,Acu-Link.com,2013-05-03 18:52:00,
2013-05-03 15:07:00,77.0,43.2,30.12,NW,315,1.6,-999.0,30,-99.99,,,0.00,Acu-Link.com,2013-05-03 19:07:00,
2013-05-03 15:22:00,78.8,47.2,30.12,West,270,4.7,-999.0,33,-99.99,,,0.00,Acu-Link.com,2013-05-03 19:22:00,
2013-05-03 15:37:00,78.8,43.8,30.11,NNE,22,3.1,-999.0,29,-99.99,,,0.00,Acu-Link.com,2013-05-03 19:37:00,
2013-05-03 15:52:00,78.8,44.7,30.11,South,180,2.7,-999.0,30,-99.99,,,0.00,Acu-Link.com,2013-05-03 19:52:00,
2013-05-03 16:07:00,78.8,45.6,30.10,SE,135,1.6,-999.0,31,-99.99,,,0.00,Acu-Link.com,2013-05-03 20:07:00,
2013-05-03 16:22:00,77.0,44.0,30.10,ESE,112,7.2,-999.0,31,-99.99,,,0.00,Acu-Link.com,2013-05-03 20:22:00,
2013-05-03 16:37:00,77.0,43.2,30.09,East,90,1.6,-999.0,30,-99.99,,,0.00,Acu-Link.com,2013-05-03 20:37:00,
2013-05-03 16:52:00,77.0,43.2,30.09,NE,45,1.6,-999.0,30,-99.99,,,0.00,Acu-Link.com,2013-05-03 20:52:00,
2013-05-03 17:07:00,77.0,44.0,30.09,SSW,202,4.0,-999.0,31,-99.99,,,0.00,Acu-Link.com,2013-05-03 21:07:00,
2013-05-03 17:22:00,78.8,45.6,30.09,South,180,3.1,-999.0,31,-99.99,,,0.00,Acu-Link.com,2013-05-03 21:22:00,
2013-05-03 17:37:00,77.0,40.4,30.08,SSW,202,3.1,-999.0,27,-99.99,,,0.00,Acu-Link.com,2013-05-03 21:37:00,
2013-05-03 17:52:00,77.0,38.5,30.08,SE,135,2.7,-999.0,25,-99.99,,,0.00,Acu-Link.com,2013-05-03 21:52:00,
2013-05-03 18:08:00,77.0,42.3,30.08,SW,225,2.7,-999.0,29,-99.99,,,0.00,Acu-Link.com,2013-05-03 22:08:00,
2013-05-03 18:38:00,78.8,42.0,30.08,West,270,2.7,-999.0,27,-99.99,,,0.00,Acu-Link.com,2013-05-03 22:38:00,
2013-05-03 18:53:00,77.0,41.4,30.08,ESE,112,2.0,-999.0,28,-99.99,,,0.00,Acu-Link.com,2013-05-03 22:53:00,
2013-05-03 19:08:00,77.0,44.0,30.08,SE,135,1.6,-999.0,31,-99.99,,,0.00,Acu-Link.com,2013-05-03 23:08:00,
2013-05-03 19:23:00,77.0,44.9,30.08,ESE,112,1.6,-999.0,32,-99.99,,,0.00,Acu-Link.com,2013-05-03 23:23:00,
2013-05-03 19:38:00,75.2,42.5,30.08,ESE,112,2.0,-999.0,31,-99.99,,,0.00,Acu-Link.com,2013-05-03 23:38:00,
2013-05-03 19:53:00,73.4,44.8,30.08,West,270,1.6,-999.0,36,-99.99,,,0.00,Acu-Link.com,2013-05-03 23:53:00,
2013-05-03 20:08:00,71.6,44.6,30.09,ENE,67,4.0,-999.0,38,-99.99,,,0.00,Acu-Link.com,2013-05-04 00:08:00,
2013-05-03 20:23:00,69.8,45.7,30.09,WNW,292,1.6,-999.0,42,-99.99,,,0.00,Acu-Link.com,2013-05-04 00:23:00,
2013-05-03 20:38:00,68.0,44.0,30.10,NNE,22,4.7,-999.0,42,-99.99,,,0.00,Acu-Link.com,2013-05-04 00:38:00,
2013-05-03 20:53:00,68.0,45.3,30.10,ESE,112,4.0,-999.0,44,-99.99,,,0.00,Acu-Link.com,2013-05-04 00:53:00,
2013-05-03 21:08:00,68.0,46.4,30.11,WSW,247,2.7,-999.0,46,-99.99,,,0.00,Acu-Link.com,2013-05-04 01:08:00,
2013-05-03 21:23:00,66.2,45.4,30.10,NNE,22,3.1,-999.0,47,-99.99,,,0.00,Acu-Link.com,2013-05-04 01:23:00,
2013-05-03 21:38:00,66.2,45.4,30.11,SW,225,2.0,-999.0,47,-99.99,,,0.77,Acu-Link.com,2013-05-04 01:38:00,
2013-05-03 21:53:00,64.4,44.8,30.11,WNW,292,2.0,-999.0,49,-99.99,,,0.77,Acu-Link.com,2013-05-04 01:53:00,
2013-05-03 22:08:00,64.4,45.4,30.11,SSE,157,0.0,-999.0,50,-99.99,,,0.77,Acu-Link.com,2013-05-04 02:08:00,
2013-05-03 22:23:00,64.4,46.4,30.12,South,180,2.0,-999.0,52,-99.99,,,0.77,Acu-Link.com,2013-05-04 02:23:00,
2013-05-03 22:38:00,64.4,45.9,30.12,West,270,2.7,-999.0,51,-99.99,,,0.77,Acu-Link.com,2013-05-04 02:38:00,
2013-05-03 22:53:00,64.4,46.4,30.12,ENE,67,3.1,-999.0,52,-99.99,,,0.77,Acu-Link.com,2013-05-04 02:53:00,
2013-05-03 23:08:00,64.4,46.4,30.12,East,90,2.7,-999.0,52,-99.99,,,0.77,Acu-Link.com,2013-05-04 03:08:00,
2013-05-03 23:23:00,62.6,44.7,30.12,East,90,3.6,-999.0,52,-99.99,,,0.77,Acu-Link.com,2013-05-04 03:23:00,
2013-05-03 23:38:00,62.6,45.2,30.13,ESE,112,3.6,-999.0,53,-99.99,,,0.77,Acu-Link.com,2013-05-04 03:38:00,
2013-05-03 23:54:00,62.6,45.2,30.13,South,180,2.7,-999.0,53,-99.99,,,0.77,Acu-Link.com,2013-05-04 03:54:00,